status,avgMeasuredTime,avgSpeed,extID,medianMeasuredTime,TIMESTAMP,vehicleCount,_id,REPORT_ID
OK,81,42,772,81,2014-08-01T07:55:00,0,20746496,198193
OK,81,42,772,81,2014-08-01T08:00:00,0,20746827,198193
OK,81,42,772,81,2014-08-01T08:05:00,0,20747276,198193
OK,70,49,772,70,2014-08-01T08:10:00,4,20747649,198193
OK,70,49,772,70,2014-08-01T08:15:00,3,20748098,198193
OK,70,49,772,70,2014-08-01T08:20:00,0,20748547,198193
OK,71,48,772,71,2014-08-01T08:25:00,2,20748996,198193
OK,85,40,772,85,2014-08-01T08:30:00,2,20749445,198193
OK,84,41,772,84,2014-08-01T08:35:00,4,20749894,198193
OK,84,41,772,84,2014-08-01T08:40:00,0,20750343,198193
OK,84,41,772,84,2014-08-01T08:45:00,0,20750792,198193
OK,118,29,772,118,2014-08-01T08:50:00,2,20751241,198193
OK,118,29,772,118,2014-08-01T08:55:00,2,20751690,198193
OK,87,39,772,87,2014-08-01T09:00:00,2,20752139,198193
OK,78,44,772,78,2014-08-01T09:05:00,4,20752588,198193
OK,73,47,772,73,2014-08-01T09:10:00,1,20753037,198193
OK,63,55,772,63,2014-08-01T09:15:00,1,20753486,198193
OK,62,56,772,62,2014-08-01T09:20:00,2,20753935,198193
OK,62,56,772,62,2014-08-01T09:25:00,0,20754384,198193
OK,72,48,772,72,2014-08-01T09:30:00,1,20754833,198193
OK,72,48,772,72,2014-08-01T09:35:00,0,20755282,198193
OK,75,46,772,75,2014-08-01T09:40:00,2,20755731,198193
OK,61,56,772,61,2014-08-01T09:45:00,1,20756180,198193
OK,119,29,772,119,2014-08-01T09:50:00,1,20756629,198193
OK,99,35,772,99,2014-08-01T09:55:00,2,20757078,198193
OK,94,36,772,94,2014-08-01T10:00:00,2,20757527,198193
OK,108,32,772,108,2014-08-01T10:05:00,0,20757976,198193
OK,108,32,772,108,2014-08-01T10:10:00,0,20758425,198193
OK,66,52,772,66,2014-08-01T10:15:00,1,20758874,198193
OK,78,44,772,78,2014-08-01T10:20:00,1,20759323,198193
OK,91,38,772,91,2014-08-01T10:25:00,2,20759772,198193
OK,105,33,772,105,2014-08-01T10:30:00,0,20760221,198193
OK,105,33,772,105,2014-08-01T10:35:00,0,20760670,198193
OK,105,33,772,105,2014-08-01T10:40:00,0,20761119,198193
OK,84,41,772,84,2014-08-01T10:45:00,1,20761568,198193
OK,83,41,772,83,2014-08-01T10:50:00,3,20762017,198193
OK,83,41,772,83,2014-08-01T10:55:00,7,20762466,198193
OK,75,46,772,75,2014-08-01T11:00:00,6,20762915,198193
OK,78,44,772,78,2014-08-01T11:05:00,4,20763364,198193
OK,83,41,772,83,2014-08-01T11:10:00,2,20763813,198193
OK,105,33,772,105,2014-08-01T11:15:00,1,20764262,198193
OK,94,36,772,94,2014-08-01T11:20:00,5,20764710,198193
OK,93,37,772,93,2014-08-01T11:25:00,5,20765159,198193
OK,91,38,772,91,2014-08-01T11:30:00,3,20765608,198193
OK,89,39,772,89,2014-08-01T11:35:00,3,20766057,198193
OK,78,44,772,78,2014-08-01T11:40:00,4,20766506,198193
OK,78,44,772,78,2014-08-01T11:45:00,6,20766955,198193
OK,73,47,772,73,2014-08-01T11:50:00,4,20767404,198193
OK,78,44,772,78,2014-08-01T11:55:00,3,20767853,198193
OK,84,41,772,84,2014-08-01T12:00:00,3,20768302,198193
OK,84,41,772,84,2014-08-01T12:05:00,3,20768751,198193
OK,71,48,772,71,2014-08-01T12:10:00,1,20769200,198193
OK,80,43,772,80,2014-08-01T12:15:00,2,20769649,198193
OK,105,33,772,105,2014-08-01T12:20:00,6,20770098,198193
OK,126,27,772,126,2014-08-01T12:25:00,5,20770547,198193
OK,101,34,772,101,2014-08-01T12:30:00,0,20770996,198193
OK,69,50,772,69,2014-08-01T12:35:00,2,20771445,198193
OK,71,48,772,71,2014-08-01T12:40:00,5,20771894,198193
OK,76,45,772,76,2014-08-01T12:45:00,4,20772343,198193
OK,83,41,772,83,2014-08-01T12:50:00,7,20772792,198193
OK,78,44,772,78,2014-08-01T12:55:00,8,20773241,198193
OK,82,42,772,82,2014-08-01T13:00:00,1,20773690,198193
OK,82,42,772,82,2014-08-01T13:05:00,0,20774139,198193
OK,83,41,772,83,2014-08-01T13:10:00,6,20774588,198193
OK,83,41,772,83,2014-08-01T13:15:00,8,20775037,198193
OK,93,37,772,93,2014-08-01T13:20:00,2,20775486,198193
OK,96,36,772,96,2014-08-01T13:25:00,3,20775935,198193
OK,96,36,772,96,2014-08-01T13:30:00,4,20776384,198193
OK,96,36,772,96,2014-08-01T13:35:00,1,20776833,198193
OK,96,36,772,96,2014-08-01T13:40:00,0,20777282,198193
OK,87,39,772,87,2014-08-01T13:45:00,1,20777731,198193
OK,87,39,772,87,2014-08-01T13:50:00,3,20778180,198193
OK,81,42,772,81,2014-08-01T13:55:00,5,20778629,198193
OK,72,48,772,72,2014-08-01T14:00:00,5,20779078,198193
OK,85,40,772,85,2014-08-01T14:05:00,4,20779527,198193
OK,82,42,772,82,2014-08-01T14:10:00,3,20779976,198193
OK,75,46,772,75,2014-08-01T14:15:00,4,20780425,198193
OK,93,37,772,93,2014-08-01T14:20:00,4,20780874,198193
OK,113,30,772,113,2014-08-01T14:25:00,3,20781323,198193
OK,91,38,772,91,2014-08-01T14:30:00,2,20781772,198193
OK,69,50,772,69,2014-08-01T14:35:00,0,20782221,198193
OK,69,50,772,69,2014-08-01T14:40:00,0,20782670,198193
OK,60,57,772,60,2014-08-01T14:45:00,1,20783119,198193
OK,66,52,772,66,2014-08-01T14:50:00,2,20783568,198193
OK,91,38,772,91,2014-08-01T14:55:00,2,20784017,198193
OK,110,31,772,110,2014-08-01T15:00:00,1,20784466,198193
OK,80,43,772,80,2014-08-01T15:05:00,4,20784915,198193
OK,80,43,772,80,2014-08-01T15:10:00,4,20785364,198193
OK,64,54,772,64,2014-08-01T15:15:00,0,20785813,198193
OK,64,54,772,64,2014-08-01T15:20:00,0,20786262,198193
OK,119,29,772,119,2014-08-01T15:25:00,1,20786711,198193
OK,100,34,772,100,2014-08-01T15:30:00,2,20787160,198193
OK,74,46,772,74,2014-08-01T15:35:00,1,20787609,198193
OK,76,45,772,76,2014-08-01T15:40:00,3,20788058,198193
OK,91,38,772,91,2014-08-01T15:45:00,2,20788507,198193
OK,85,40,772,85,2014-08-01T15:50:00,2,20788956,198193
OK,82,42,772,82,2014-08-01T15:55:00,1,20789405,198193
OK,82,42,772,82,2014-08-01T16:00:00,0,20789854,198193
OK,55,63,772,55,2014-08-01T16:05:00,1,20790303,198193
OK,55,63,772,55,2014-08-01T16:10:00,0,20790752,198193
OK,55,63,772,55,2014-08-01T16:15:00,0,20791201,198193
OK,55,63,772,55,2014-08-01T16:20:00,0,20791650,198193
OK,55,63,772,55,2014-08-01T16:25:00,0,20792099,198193
OK,87,39,772,87,2014-08-01T16:30:00,2,20792548,198193
OK,87,39,772,87,2014-08-01T16:35:00,2,20792997,198193
OK,70,49,772,70,2014-08-01T16:40:00,2,20793446,198193
OK,70,49,772,70,2014-08-01T16:45:00,2,20793895,198193
OK,65,53,772,65,2014-08-01T16:50:00,0,20794344,198193
OK,87,39,772,87,2014-08-01T16:55:00,2,20794793,198193
OK,87,39,772,87,2014-08-01T17:00:00,2,20795242,198193
OK,103,33,772,103,2014-08-01T17:05:00,1,20795691,198193
OK,89,39,772,89,2014-08-01T17:10:00,2,20796140,198193
OK,76,45,772,76,2014-08-01T17:15:00,1,20796589,198193
OK,76,45,772,76,2014-08-01T17:20:00,0,20797038,198193
OK,76,45,772,76,2014-08-01T17:25:00,0,20797487,198193
OK,76,45,772,76,2014-08-01T17:30:00,0,20797936,198193
OK,76,45,772,76,2014-08-01T17:35:00,0,20798385,198193
OK,125,27,772,125,2014-08-01T17:40:00,2,20798834,198193
OK,125,27,772,125,2014-08-01T17:45:00,2,20799283,198193
OK,103,33,772,103,2014-08-01T17:50:00,0,20799732,198193
OK,84,41,772,84,2014-08-01T17:55:00,1,20800181,198193
OK,84,41,772,84,2014-08-01T18:00:00,1,20800630,198193
OK,70,49,772,70,2014-08-01T18:05:00,1,20801079,198193
OK,70,49,772,70,2014-08-01T18:10:00,1,20801528,198193
OK,70,49,772,70,2014-08-01T18:15:00,0,20801977,198193
OK,70,49,772,70,2014-08-01T18:20:00,2,20802426,198193
OK,65,53,772,65,2014-08-01T18:25:00,1,20802875,198193
OK,75,46,772,75,2014-08-01T18:30:00,1,20803324,198193
OK,78,44,772,78,2014-08-01T18:35:00,1,20803773,198193
OK,109,31,772,109,2014-08-01T18:40:00,1,20804222,198193
OK,109,31,772,109,2014-08-01T18:45:00,0,20804671,198193
OK,84,41,772,84,2014-08-01T18:50:00,1,20805120,198193
OK,85,40,772,85,2014-08-01T18:55:00,4,20805569,198193
OK,90,38,772,90,2014-08-01T19:00:00,2,20806018,198193
OK,94,36,772,94,2014-08-01T19:05:00,0,20806467,198193
OK,94,36,772,94,2014-08-01T19:10:00,0,20806916,198193
OK,123,28,772,123,2014-08-01T19:15:00,0,20807365,198193
OK,93,37,772,93,2014-08-01T19:20:00,1,20807814,198193
OK,147,23,772,147,2014-08-01T19:25:00,1,20808263,198193
OK,113,30,772,113,2014-08-01T19:30:00,2,20808712,198193
OK,79,43,772,79,2014-08-01T19:35:00,1,20809161,198193
OK,79,43,772,79,2014-08-01T19:40:00,0,20809610,198193
OK,70,49,772,70,2014-08-01T19:45:00,2,20810059,198193
OK,97,35,772,97,2014-08-01T19:50:00,1,20810508,198193
OK,90,38,772,90,2014-08-01T19:55:00,2,20810957,198193
OK,75,46,772,75,2014-08-01T22:00:00,0,20816686,198193
OK,75,46,772,75,2014-08-01T22:05:00,0,20817135,198193
OK,75,46,772,75,2014-08-01T22:10:00,0,20817457,198193
OK,75,46,772,75,2014-08-01T22:20:00,0,20818176,198193
OK,75,46,772,75,2014-08-01T22:25:00,0,20818492,198193
OK,77,45,772,77,2014-08-01T23:45:00,0,20822234,198193
OK,77,45,772,77,2014-08-02T00:00:00,0,20823125,198193
OK,77,45,772,77,2014-08-02T00:05:00,0,20823574,198193
OK,77,45,772,77,2014-08-02T00:10:00,0,20824023,198193
OK,77,45,772,77,2014-08-02T00:15:00,0,20824472,198193
OK,77,45,772,77,2014-08-02T00:20:00,0,20824921,198193
OK,77,45,772,77,2014-08-02T00:25:00,0,20825370,198193
OK,77,45,772,77,2014-08-02T00:30:00,0,20825819,198193
OK,77,45,772,77,2014-08-02T00:35:00,0,20826268,198193
OK,77,45,772,77,2014-08-02T00:40:00,0,20826717,198193
OK,77,45,772,77,2014-08-02T00:45:00,0,20827166,198193
OK,77,45,772,77,2014-08-02T00:50:00,0,20827615,198193
OK,77,45,772,77,2014-08-02T00:55:00,0,20828064,198193
OK,77,45,772,77,2014-08-02T01:00:00,0,20828513,198193
OK,77,45,772,77,2014-08-02T01:05:00,0,20828962,198193
OK,77,45,772,77,2014-08-02T01:10:00,0,20829411,198193
OK,77,45,772,77,2014-08-02T01:15:00,0,20829860,198193
OK,77,45,772,77,2014-08-02T01:20:00,0,20830309,198193
OK,77,45,772,77,2014-08-02T01:25:00,0,20830758,198193
OK,77,45,772,77,2014-08-02T01:30:00,0,20831207,198193
OK,77,45,772,77,2014-08-02T01:35:00,0,20831656,198193
OK,77,45,772,77,2014-08-02T01:40:00,0,20832105,198193
OK,89,39,772,89,2014-08-02T01:45:00,1,20832554,198193
OK,89,39,772,89,2014-08-02T01:50:00,0,20833003,198193
OK,89,39,772,89,2014-08-02T01:55:00,0,20833452,198193
OK,89,39,772,89,2014-08-02T02:00:00,0,20833901,198193
OK,89,39,772,89,2014-08-02T02:05:00,0,20834350,198193
OK,89,39,772,89,2014-08-02T02:10:00,0,20834799,198193
OK,89,39,772,89,2014-08-02T02:15:00,0,20835248,198193
OK,89,39,772,89,2014-08-02T02:20:00,0,20835697,198193
OK,89,39,772,89,2014-08-02T02:25:00,0,20836146,198193
OK,89,39,772,89,2014-08-02T02:30:00,0,20836595,198193
OK,89,39,772,89,2014-08-02T02:35:00,0,20837044,198193
OK,89,39,772,89,2014-08-02T02:40:00,0,20837493,198193
OK,89,39,772,89,2014-08-02T02:45:00,0,20837942,198193
OK,89,39,772,89,2014-08-02T02:50:00,0,20838391,198193
OK,89,39,772,89,2014-08-02T02:55:00,0,20838840,198193
OK,89,39,772,89,2014-08-02T03:00:00,0,20839289,198193
OK,89,39,772,89,2014-08-02T03:05:00,0,20839738,198193
OK,89,39,772,89,2014-08-02T03:10:00,0,20840187,198193
OK,89,39,772,89,2014-08-02T03:15:00,0,20840636,198193
OK,89,39,772,89,2014-08-02T03:20:00,0,20841085,198193
OK,89,39,772,89,2014-08-02T03:25:00,0,20841534,198193
OK,89,39,772,89,2014-08-02T03:30:00,0,20841983,198193
OK,89,39,772,89,2014-08-02T03:35:00,0,20842432,198193
OK,89,39,772,89,2014-08-02T03:40:00,0,20842881,198193
OK,89,39,772,89,2014-08-02T03:45:00,0,20843330,198193
OK,89,39,772,89,2014-08-02T03:50:00,0,20843779,198193
OK,91,38,772,91,2014-08-02T03:55:00,0,20844228,198193
OK,91,38,772,91,2014-08-02T04:10:00,0,20845138,198193
OK,91,38,772,91,2014-08-02T04:15:00,0,20845318,198193
OK,91,38,772,91,2014-08-02T04:20:00,0,20845674,198193
OK,91,38,772,91,2014-08-02T04:30:00,0,20846230,198193
OK,91,38,772,91,2014-08-02T04:35:00,0,20846597,198193
OK,91,38,772,91,2014-08-02T04:40:00,0,20846980,198193
OK,91,38,772,91,2014-08-02T04:45:00,0,20847239,198193
OK,91,38,772,91,2014-08-02T04:50:00,0,20847605,198193
OK,91,38,772,91,2014-08-02T05:00:00,0,20848483,198193
OK,91,38,772,91,2014-08-02T05:20:00,0,20849376,198193
OK,72,48,772,72,2014-08-02T05:40:00,0,20850466,198193
OK,72,48,772,72,2014-08-02T05:50:00,0,20851125,198193
OK,83,41,772,83,2014-08-02T06:00:00,0,20851682,198193
OK,83,41,772,83,2014-08-02T06:05:00,0,20852131,198193
OK,83,41,772,83,2014-08-02T06:10:00,0,20852580,198193
OK,83,41,772,83,2014-08-02T06:15:00,0,20853029,198193
OK,83,41,772,83,2014-08-02T06:20:00,0,20853478,198193
OK,83,41,772,83,2014-08-02T06:25:00,0,20853927,198193
OK,83,41,772,83,2014-08-02T06:30:00,0,20854376,198193
OK,83,41,772,83,2014-08-02T06:35:00,0,20854825,198193
OK,83,41,772,83,2014-08-02T06:40:00,0,20855274,198193
OK,83,41,772,83,2014-08-02T06:45:00,0,20855723,198193
OK,83,41,772,83,2014-08-02T06:50:00,0,20856172,198193
OK,123,28,772,123,2014-08-02T06:55:00,1,20856621,198193
OK,123,28,772,123,2014-08-02T07:00:00,0,20857070,198193
OK,123,28,772,123,2014-08-02T07:05:00,0,20857519,198193
OK,123,28,772,123,2014-08-02T07:10:00,0,20857968,198193
OK,123,28,772,123,2014-08-02T07:15:00,0,20858417,198193
OK,107,32,772,107,2014-08-02T07:20:00,1,20858866,198193
OK,97,35,772,97,2014-08-02T07:25:00,2,20859315,198193
OK,74,46,772,74,2014-08-02T07:30:00,2,20859764,198193
OK,74,46,772,74,2014-08-02T07:35:00,2,20860213,198193
OK,74,46,772,74,2014-08-02T07:40:00,0,20860662,198193
OK,74,46,772,74,2014-08-02T07:45:00,0,20861111,198193
OK,74,46,772,74,2014-08-02T07:50:00,0,20861560,198193
OK,99,35,772,99,2014-08-02T07:55:00,1,20862009,198193
OK,99,35,772,99,2014-08-02T08:00:00,1,20862458,198193
OK,99,35,772,99,2014-08-02T08:05:00,0,20862907,198193
OK,99,35,772,99,2014-08-02T08:10:00,0,20863356,198193
OK,99,35,772,99,2014-08-02T08:15:00,0,20863805,198193
OK,92,37,772,92,2014-08-02T08:20:00,1,20864254,198193
OK,92,37,772,92,2014-08-02T08:25:00,1,20864703,198193
OK,92,37,772,92,2014-08-02T08:30:00,0,20865152,198193
OK,87,39,772,87,2014-08-02T08:35:00,2,20865601,198193
OK,82,42,772,82,2014-08-02T08:40:00,3,20866050,198193
OK,82,42,772,82,2014-08-02T08:45:00,2,20866499,198193
OK,79,43,772,79,2014-08-02T08:50:00,2,20866948,198193
OK,64,54,772,64,2014-08-02T08:55:00,2,20867397,198193
OK,69,50,772,69,2014-08-02T09:00:00,1,20867846,198193
OK,86,40,772,86,2014-08-02T09:05:00,1,20868295,198193
OK,86,40,772,86,2014-08-02T09:10:00,1,20868744,198193
OK,86,40,772,86,2014-08-02T09:15:00,0,20869193,198193
OK,91,38,772,91,2014-08-02T09:20:00,1,20869642,198193
OK,91,38,772,91,2014-08-02T09:25:00,5,20870091,198193
OK,88,39,772,88,2014-08-02T09:30:00,4,20870540,198193
OK,74,46,772,74,2014-08-02T09:35:00,0,20870989,198193
OK,96,36,772,96,2014-08-02T09:40:00,2,20871438,198193
OK,96,36,772,96,2014-08-02T09:45:00,0,20871887,198193
OK,96,36,772,96,2014-08-02T09:50:00,0,20872336,198193
OK,62,56,772,62,2014-08-02T09:55:00,1,20872785,198193
OK,79,43,772,79,2014-08-02T10:00:00,2,20873234,198193
OK,97,35,772,97,2014-08-02T10:05:00,1,20873683,198193
OK,97,35,772,97,2014-08-02T10:10:00,0,20874132,198193
OK,97,35,772,97,2014-08-02T10:15:00,0,20874581,198193
OK,58,59,772,58,2014-08-02T10:20:00,1,20875030,198193
OK,72,48,772,72,2014-08-02T10:25:00,2,20875479,198193
OK,77,45,772,77,2014-08-02T10:30:00,2,20875928,198193
OK,68,51,772,68,2014-08-02T10:35:00,3,20876377,198193
OK,68,51,772,68,2014-08-02T10:40:00,4,20876826,198193
OK,73,47,772,73,2014-08-02T10:45:00,1,20877275,198193
OK,66,52,772,66,2014-08-02T10:50:00,1,20877724,198193
OK,66,52,772,66,2014-08-02T10:55:00,0,20878173,198193
OK,66,52,772,66,2014-08-02T11:00:00,0,20878622,198193
OK,66,52,772,66,2014-08-02T11:05:00,0,20879071,198193
OK,66,52,772,66,2014-08-02T11:10:00,0,20879520,198193
OK,66,52,772,66,2014-08-02T11:15:00,0,20879969,198193
OK,80,43,772,80,2014-08-02T11:20:00,3,20880418,198193
OK,86,40,772,86,2014-08-02T11:25:00,2,20880867,198193
OK,94,36,772,94,2014-08-02T11:30:00,2,20881316,198193
OK,61,56,772,61,2014-08-02T11:35:00,3,20881765,198193
OK,71,48,772,71,2014-08-02T11:40:00,2,20882214,198193
OK,81,42,772,81,2014-08-02T11:45:00,1,20882663,198193
OK,81,42,772,81,2014-08-02T11:50:00,0,20883112,198193
OK,67,51,772,67,2014-08-02T11:55:00,1,20883561,198193
OK,75,46,772,75,2014-08-02T12:00:00,2,20884010,198193
OK,84,41,772,84,2014-08-02T12:05:00,0,20884459,198193
OK,84,41,772,84,2014-08-02T12:10:00,0,20884908,198193
OK,84,41,772,84,2014-08-02T12:15:00,0,20885357,198193
OK,86,40,772,86,2014-08-02T12:20:00,1,20885806,198193
OK,72,48,772,72,2014-08-02T12:25:00,3,20886255,198193
OK,72,48,772,72,2014-08-02T12:30:00,3,20886704,198193
OK,112,31,772,112,2014-08-02T12:35:00,1,20887153,198193
OK,103,33,772,103,2014-08-02T12:40:00,2,20887602,198193
OK,95,36,772,95,2014-08-02T12:45:00,0,20888051,198193
OK,76,45,772,76,2014-08-02T12:50:00,1,20888500,198193
OK,93,37,772,93,2014-08-02T12:55:00,3,20888949,198193
OK,91,38,772,91,2014-08-02T13:00:00,4,20889398,198193
OK,83,41,772,83,2014-08-02T13:05:00,1,20889847,198193
OK,118,29,772,118,2014-08-02T13:10:00,2,20890296,198193
OK,87,39,772,87,2014-08-02T13:15:00,3,20890745,198193
OK,89,39,772,89,2014-08-02T13:20:00,2,20891194,198193
OK,87,39,772,87,2014-08-02T13:25:00,2,20891643,198193
OK,83,41,772,83,2014-08-02T13:30:00,1,20892092,198193
OK,83,41,772,83,2014-08-02T13:35:00,0,20892541,198193
OK,83,41,772,83,2014-08-02T13:40:00,0,20892990,198193
OK,83,41,772,83,2014-08-02T13:45:00,0,20893439,198193
OK,66,52,772,66,2014-08-02T13:50:00,1,20893888,198193
OK,66,52,772,66,2014-08-02T13:55:00,1,20894337,198193
OK,70,49,772,70,2014-08-02T14:00:00,2,20894786,198193
OK,69,50,772,69,2014-08-02T14:05:00,1,20895235,198193
OK,69,50,772,69,2014-08-02T14:10:00,0,20895684,198193
OK,69,50,772,69,2014-08-02T14:15:00,0,20896133,198193
OK,71,48,772,71,2014-08-02T14:20:00,2,20896582,198193
OK,73,47,772,73,2014-08-02T14:25:00,2,20897031,198193
OK,73,47,772,73,2014-08-02T14:30:00,1,20897480,198193
OK,84,41,772,84,2014-08-02T14:35:00,1,20897929,198193
OK,84,41,772,84,2014-08-02T14:40:00,1,20898378,198193
OK,83,41,772,83,2014-08-02T14:45:00,2,20898827,198193
OK,83,41,772,83,2014-08-02T14:50:00,3,20899276,198193
OK,118,29,772,118,2014-08-02T14:55:00,1,20899725,198193
OK,118,29,772,118,2014-08-02T15:00:00,1,20900174,198193
OK,118,29,772,118,2014-08-02T15:05:00,0,20900623,198193
OK,104,33,772,104,2014-08-02T15:10:00,1,20901072,198193
OK,104,33,772,104,2014-08-02T15:15:00,0,20901521,198193
OK,104,33,772,104,2014-08-02T15:20:00,0,20901970,198193
OK,104,33,772,104,2014-08-02T15:25:00,0,20902419,198193
OK,73,47,772,73,2014-08-02T15:30:00,1,20902868,198193
OK,73,47,772,73,2014-08-02T15:35:00,1,20903317,198193
OK,73,47,772,73,2014-08-02T15:40:00,0,20903766,198193
OK,73,47,772,73,2014-08-02T15:45:00,0,20904215,198193
OK,72,48,772,72,2014-08-02T15:50:00,1,20904664,198193
OK,72,48,772,72,2014-08-02T15:55:00,0,20905113,198193
OK,67,51,772,67,2014-08-02T16:00:00,1,20905562,198193
OK,67,51,772,67,2014-08-02T16:05:00,0,20906011,198193
OK,68,51,772,68,2014-08-02T16:10:00,1,20906460,198193
OK,68,51,772,68,2014-08-02T16:15:00,2,20906909,198193
OK,69,50,772,69,2014-08-02T16:20:00,0,20907358,198193
OK,69,50,772,69,2014-08-02T16:25:00,0,20907807,198193
OK,69,50,772,69,2014-08-02T16:30:00,0,20908256,198193
OK,69,50,772,69,2014-08-02T16:35:00,1,20908705,198193
OK,69,50,772,69,2014-08-02T16:40:00,1,20909154,198193
OK,72,48,772,72,2014-08-02T16:45:00,1,20909603,198193
OK,72,48,772,72,2014-08-02T16:50:00,1,20910052,198193
OK,72,48,772,72,2014-08-02T16:55:00,0,20910501,198193
OK,72,48,772,72,2014-08-02T17:00:00,0,20910950,198193
OK,72,48,772,72,2014-08-02T17:05:00,0,20911399,198193
OK,67,51,772,67,2014-08-02T17:10:00,1,20911848,198193
OK,67,51,772,67,2014-08-02T17:15:00,1,20912297,198193
OK,89,39,772,89,2014-08-02T17:20:00,2,20912746,198193
OK,71,48,772,71,2014-08-02T17:25:00,1,20913195,198193
OK,71,48,772,71,2014-08-02T17:30:00,0,20913644,198193
OK,71,48,772,71,2014-08-02T17:35:00,0,20914093,198193
OK,71,48,772,71,2014-08-02T17:40:00,0,20914542,198193
OK,71,48,772,71,2014-08-02T17:45:00,0,20914991,198193
OK,71,48,772,71,2014-08-02T17:50:00,0,20915440,198193
OK,96,36,772,96,2014-08-02T17:55:00,1,20915889,198193
OK,96,36,772,96,2014-08-02T18:00:00,0,20916338,198193
OK,96,36,772,96,2014-08-02T18:05:00,0,20916787,198193
OK,96,36,772,96,2014-08-02T18:10:00,0,20917236,198193
OK,96,36,772,96,2014-08-02T18:15:00,0,20917685,198193
OK,96,36,772,96,2014-08-02T18:20:00,0,20918134,198193
OK,96,36,772,96,2014-08-02T18:25:00,0,20918583,198193
OK,96,36,772,96,2014-08-02T18:30:00,0,20919032,198193
OK,96,36,772,96,2014-08-02T18:35:00,0,20919481,198193
OK,96,36,772,96,2014-08-02T18:40:00,0,20919930,198193
OK,96,36,772,96,2014-08-02T18:45:00,0,20920379,198193
OK,100,34,772,100,2014-08-02T18:50:00,1,20920828,198193
OK,100,34,772,100,2014-08-02T18:55:00,1,20921277,198193
OK,80,43,772,80,2014-08-02T19:00:00,1,20921726,198193
OK,83,41,772,83,2014-08-02T19:05:00,2,20922175,198193
OK,87,39,772,87,2014-08-02T19:10:00,0,20922624,198193
OK,87,39,772,87,2014-08-02T19:15:00,0,20923073,198193
OK,87,39,772,87,2014-08-02T19:20:00,0,20923522,198193
OK,89,39,772,89,2014-08-02T19:25:00,2,20923971,198193
OK,89,39,772,89,2014-08-02T19:30:00,0,20924420,198193
OK,63,55,772,63,2014-08-02T19:35:00,1,20924869,198193
OK,63,55,772,63,2014-08-02T19:40:00,0,20925318,198193
OK,63,55,772,63,2014-08-02T19:45:00,0,20925767,198193
OK,63,55,772,63,2014-08-02T19:50:00,0,20926216,198193
OK,63,55,772,63,2014-08-02T19:55:00,0,20926665,198193
OK,63,55,772,63,2014-08-02T20:00:00,0,20927114,198193
OK,63,55,772,63,2014-08-02T20:05:00,0,20927563,198193
OK,63,55,772,63,2014-08-02T20:10:00,0,20928012,198193
OK,63,55,772,63,2014-08-02T20:15:00,0,20928461,198193
OK,63,55,772,63,2014-08-02T20:20:00,0,20928910,198193
OK,63,55,772,63,2014-08-02T20:25:00,0,20929359,198193
OK,80,43,772,80,2014-08-02T20:30:00,1,20929808,198193
OK,80,43,772,80,2014-08-02T20:35:00,1,20930257,198193
OK,80,43,772,80,2014-08-02T20:40:00,0,20930706,198193
OK,80,43,772,80,2014-08-02T20:45:00,0,20931155,198193
OK,80,43,772,80,2014-08-02T20:50:00,0,20931604,198193
OK,80,43,772,80,2014-08-02T20:55:00,0,20932053,198193
OK,80,43,772,80,2014-08-02T21:00:00,0,20932502,198193
OK,80,43,772,80,2014-08-02T21:05:00,0,20932951,198193
OK,80,43,772,80,2014-08-02T21:10:00,0,20933400,198193
OK,80,43,772,80,2014-08-02T21:15:00,0,20933849,198193
OK,80,43,772,80,2014-08-02T21:20:00,0,20934298,198193
OK,80,43,772,80,2014-08-02T21:25:00,0,20934747,198193
OK,80,43,772,80,2014-08-02T21:30:00,0,20935196,198193
OK,80,43,772,80,2014-08-02T21:35:00,0,20935645,198193
OK,80,43,772,80,2014-08-02T21:40:00,0,20936094,198193
OK,109,31,772,109,2014-08-02T21:45:00,1,20936543,198193
OK,109,31,772,109,2014-08-02T21:50:00,0,20936992,198193
OK,109,31,772,109,2014-08-02T21:55:00,0,20937441,198193
OK,109,31,772,109,2014-08-02T22:00:00,0,20937890,198193
OK,100,34,772,100,2014-08-02T22:05:00,1,20938339,198193
OK,100,34,772,100,2014-08-02T22:10:00,1,20938788,198193
OK,100,34,772,100,2014-08-02T22:15:00,0,20939237,198193
OK,100,34,772,100,2014-08-02T22:20:00,0,20939686,198193
OK,100,34,772,100,2014-08-02T22:25:00,0,20940135,198193
OK,100,34,772,100,2014-08-02T22:30:00,0,20940584,198193
OK,100,34,772,100,2014-08-02T22:35:00,0,20941033,198193
OK,100,34,772,100,2014-08-02T22:40:00,0,20941482,198193
OK,100,34,772,100,2014-08-02T22:45:00,0,20941931,198193
OK,100,34,772,100,2014-08-02T22:50:00,0,20942380,198193
OK,68,51,772,68,2014-08-02T22:55:00,1,20942829,198193
OK,68,51,772,68,2014-08-02T23:00:00,0,20943278,198193
OK,68,51,772,68,2014-08-02T23:10:00,0,20943727,198193
OK,68,51,772,68,2014-08-02T23:15:00,0,20944176,198193
OK,68,51,772,68,2014-08-02T23:20:00,0,20944625,198193
OK,68,51,772,68,2014-08-02T23:25:00,0,20945074,198193
OK,68,51,772,68,2014-08-02T23:30:00,0,20945523,198193
OK,68,51,772,68,2014-08-02T23:35:00,0,20945972,198193
OK,68,51,772,68,2014-08-02T23:40:00,0,20946421,198193
OK,68,51,772,68,2014-08-02T23:45:00,0,20946870,198193
OK,77,45,772,77,2014-08-02T23:50:00,2,20947319,198193
OK,86,40,772,86,2014-08-02T23:55:00,1,20947768,198193
OK,86,40,772,86,2014-08-03T00:00:00,0,20948217,198193
OK,86,40,772,86,2014-08-03T00:05:00,0,20948666,198193
OK,86,40,772,86,2014-08-03T00:10:00,0,20949115,198193
OK,86,40,772,86,2014-08-03T00:15:00,0,20949563,198193
OK,86,40,772,86,2014-08-03T00:20:00,0,20950012,198193
OK,86,40,772,86,2014-08-03T00:25:00,0,20950461,198193